Luis Beltran, Argentina
Current Conditions -  °F | °C
As of 7:00 AM on Friday 19 Dec 2014 (Local Time) from SAZN Reporting Station
Clear Clear  
Wind Chill: 70°   Ceiling: Unl
Heat Index: 70°   Visibility: 6mi
Dew Point: 34°   Wind: 9mph
Humidity: 27%   Direction: 270°W
Pressure: 29.59"   Gusts: NA
Location:  39.31°S, 65.76°W
Report Text: SAZN 191000Z 27008KT CAVOK 21/01 Q1002
Loading
Personal Weather Stations






























Interactive Weather Map New forecast layout! Learn more

10-Day Weather Forecast

Advertisements
Track Severe Weather on mobile